Year,Month,Day,Hour,Minute,Value (Times are PST for temperature in C)
2012,06,28,00,00,12.90
2012,06,28,00,01,12.90
2012,06,28,00,02,12.90
2012,06,28,00,03,12.90
2012,06,28,00,04,12.90
2012,06,28,00,05,12.90
2012,06,28,00,06,12.90
2012,06,28,00,07,12.90
2012,06,28,00,08,12.90
2012,06,28,00,09,12.90
2012,06,28,00,10,12.90
2012,06,28,00,11,12.90
2012,06,28,00,12,12.90
2012,06,28,00,13,12.90
2012,06,28,00,14,12.90
2012,06,28,00,15,12.90
2012,06,28,00,16,12.80
2012,06,28,00,17,12.80
2012,06,28,00,18,12.80
2012,06,28,00,19,12.80
2012,06,28,00,20,12.70
2012,06,28,00,21,12.70
2012,06,28,00,22,12.70
2012,06,28,00,23,12.70
2012,06,28,00,24,12.70
2012,06,28,00,25,12.70
2012,06,28,00,26,12.60
2012,06,28,00,27,12.60
2012,06,28,00,28,12.60
2012,06,28,00,29,12.60
2012,06,28,00,30,12.50
2012,06,28,00,31,12.50
2012,06,28,00,32,12.50
2012,06,28,00,33,12.40
2012,06,28,00,34,12.40
2012,06,28,00,35,12.40
2012,06,28,00,36,12.40
2012,06,28,00,37,12.40
2012,06,28,00,38,12.40
2012,06,28,00,39,12.40
2012,06,28,00,40,12.40
2012,06,28,00,41,12.40
2012,06,28,00,42,12.40
2012,06,28,00,43,12.40
2012,06,28,00,44,12.40
2012,06,28,00,45,12.30
2012,06,28,00,46,12.40
2012,06,28,00,47,12.30
2012,06,28,00,48,12.30
2012,06,28,00,49,12.30
2012,06,28,00,50,12.30
2012,06,28,00,51,12.30
2012,06,28,00,52,12.30
2012,06,28,00,53,12.30
2012,06,28,00,54,12.30
2012,06,28,00,55,12.30
2012,06,28,00,56,12.30
2012,06,28,00,57,12.30
2012,06,28,00,58,12.20
2012,06,28,00,59,12.20
2012,06,28,01,00,12.20
2012,06,28,01,01,12.20
2012,06,28,01,02,12.20
2012,06,28,01,03,12.20
2012,06,28,01,04,12.20
2012,06,28,01,05,12.20
2012,06,28,01,06,12.20
2012,06,28,01,07,12.20
2012,06,28,01,08,12.20
2012,06,28,01,09,12.20
2012,06,28,01,10,12.20
2012,06,28,01,11,12.20
2012,06,28,01,12,12.20
2012,06,28,01,13,12.20
2012,06,28,01,14,12.10
2012,06,28,01,15,12.10
2012,06,28,01,16,12.10
2012,06,28,01,17,12.10
2012,06,28,01,18,12.10
2012,06,28,01,19,12.10
2012,06,28,01,20,12.10
2012,06,28,01,21,12.10
2012,06,28,01,22,12.00
2012,06,28,01,23,12.00
2012,06,28,01,24,12.00
2012,06,28,01,25,11.90
2012,06,28,01,26,11.90
2012,06,28,01,27,11.90
2012,06,28,01,28,11.90
2012,06,28,01,29,11.80
2012,06,28,01,30,11.80
2012,06,28,01,31,11.80
2012,06,28,01,32,11.80
2012,06,28,01,33,11.80
2012,06,28,01,34,11.80
2012,06,28,01,35,11.80
2012,06,28,01,36,11.80
2012,06,28,01,37,11.80
2012,06,28,01,38,11.80
2012,06,28,01,39,11.80
2012,06,28,01,40,11.80
2012,06,28,01,41,11.80
2012,06,28,01,42,11.80
2012,06,28,01,43,11.70
2012,06,28,01,44,11.70
2012,06,28,01,45,11.70
2012,06,28,01,46,11.70
2012,06,28,01,47,11.70
2012,06,28,01,48,11.70
2012,06,28,01,49,11.60
2012,06,28,01,50,11.60
2012,06,28,01,51,11.60
2012,06,28,01,52,11.60
2012,06,28,01,53,11.60
2012,06,28,01,54,11.60
2012,06,28,01,55,11.50
2012,06,28,01,56,11.50
2012,06,28,01,57,11.50
2012,06,28,01,58,11.60
2012,06,28,01,59,11.60
2012,06,28,02,00,11.60
2012,06,28,02,01,11.50
2012,06,28,02,02,11.50
2012,06,28,02,03,11.60
2012,06,28,02,04,11.50
2012,06,28,02,05,11.50
2012,06,28,02,06,11.50
2012,06,28,02,07,11.50
2012,06,28,02,08,11.50
2012,06,28,02,09,11.50
2012,06,28,02,10,11.50
2012,06,28,02,11,11.50
2012,06,28,02,12,11.50
2012,06,28,02,13,11.50
2012,06,28,02,14,11.50
2012,06,28,02,15,11.50
2012,06,28,02,16,11.50
2012,06,28,02,17,11.50
2012,06,28,02,18,11.50
2012,06,28,02,19,11.50
2012,06,28,02,20,11.50
2012,06,28,02,21,11.50
2012,06,28,02,22,11.50
2012,06,28,02,23,11.50
2012,06,28,02,24,11.50
2012,06,28,02,25,11.60
2012,06,28,02,26,11.60
2012,06,28,02,27,11.60
2012,06,28,02,28,11.60
2012,06,28,02,29,11.60
2012,06,28,02,30,11.60
2012,06,28,02,31,11.60
2012,06,28,02,32,11.60
2012,06,28,02,33,11.60
2012,06,28,02,34,11.60
2012,06,28,02,35,11.60
2012,06,28,02,36,11.60
2012,06,28,02,37,11.60
2012,06,28,02,38,11.50
2012,06,28,02,39,11.50
2012,06,28,02,40,11.50
2012,06,28,02,41,11.50
2012,06,28,02,42,11.50
2012,06,28,02,43,11.50
2012,06,28,02,44,11.40
2012,06,28,02,45,11.40
2012,06,28,02,46,11.40
2012,06,28,02,47,11.40
2012,06,28,02,48,11.40
2012,06,28,02,49,11.40
2012,06,28,02,50,11.40
2012,06,28,02,51,11.40
2012,06,28,02,52,11.40
2012,06,28,02,53,11.40
2012,06,28,02,54,11.40
2012,06,28,02,55,11.40
2012,06,28,02,56,11.40
2012,06,28,02,57,11.40
2012,06,28,02,58,11.40
2012,06,28,02,59,11.40
2012,06,28,03,00,11.40
2012,06,28,03,01,11.40
2012,06,28,03,02,11.40
2012,06,28,03,03,11.40
2012,06,28,03,04,11.40
2012,06,28,03,05,11.40
2012,06,28,03,06,11.40
2012,06,28,03,07,11.40
2012,06,28,03,08,11.40
2012,06,28,03,09,11.40
2012,06,28,03,10,11.30
2012,06,28,03,11,11.30
2012,06,28,03,12,11.30
2012,06,28,03,13,11.30
2012,06,28,03,14,11.30
2012,06,28,03,15,11.30
2012,06,28,03,16,11.30
2012,06,28,03,17,11.30
2012,06,28,03,18,11.30
2012,06,28,03,19,11.30
2012,06,28,03,20,11.30
2012,06,28,03,21,11.30
2012,06,28,03,22,11.30
2012,06,28,03,23,11.30
2012,06,28,03,24,11.30
2012,06,28,03,25,11.30
2012,06,28,03,26,11.30
2012,06,28,03,27,11.30
2012,06,28,03,28,11.30
2012,06,28,03,29,11.30
2012,06,28,03,30,11.30
2012,06,28,03,31,11.30
2012,06,28,03,32,11.20
2012,06,28,03,33,11.20
2012,06,28,03,34,11.20
2012,06,28,03,35,11.20
2012,06,28,03,36,11.20
2012,06,28,03,37,11.20
2012,06,28,03,38,11.20
2012,06,28,03,39,11.20
2012,06,28,03,40,11.20
2012,06,28,03,41,11.20
2012,06,28,03,42,11.20
2012,06,28,03,43,11.20
2012,06,28,03,44,11.20
2012,06,28,03,45,11.20
2012,06,28,03,46,11.20
2012,06,28,03,47,11.20
2012,06,28,03,48,11.20
2012,06,28,03,49,11.10
2012,06,28,03,50,11.10
2012,06,28,03,51,11.10
2012,06,28,03,52,11.10
2012,06,28,03,53,11.10
2012,06,28,03,54,11.10
2012,06,28,03,55,11.00
2012,06,28,03,56,11.00
2012,06,28,03,57,11.00
2012,06,28,03,58,10.90
2012,06,28,03,59,10.90
2012,06,28,04,00,10.90
2012,06,28,04,01,10.90
2012,06,28,04,02,10.90
2012,06,28,04,03,10.90
2012,06,28,04,04,10.80
2012,06,28,04,05,10.80
2012,06,28,04,06,10.80
2012,06,28,04,07,10.80
2012,06,28,04,08,10.80
2012,06,28,04,09,10.80
2012,06,28,04,10,10.80
2012,06,28,04,11,10.80
2012,06,28,04,12,10.80
2012,06,28,04,13,10.80
2012,06,28,04,14,10.80
2012,06,28,04,15,10.80
2012,06,28,04,16,10.80
2012,06,28,04,17,10.70
2012,06,28,04,18,10.70
2012,06,28,04,19,10.70
2012,06,28,04,20,10.70
2012,06,28,04,21,10.70
2012,06,28,04,22,10.70
2012,06,28,04,23,10.70
2012,06,28,04,24,10.70
2012,06,28,04,25,10.70
2012,06,28,04,26,10.70
2012,06,28,04,27,10.70
2012,06,28,04,28,10.70
2012,06,28,04,29,10.70
2012,06,28,04,30,10.70
2012,06,28,04,31,10.70
2012,06,28,04,32,10.70
2012,06,28,04,33,10.70
2012,06,28,04,34,10.70
2012,06,28,04,35,10.70
2012,06,28,04,36,10.70
2012,06,28,04,37,10.70
2012,06,28,04,38,10.70
2012,06,28,04,39,10.70
2012,06,28,04,40,10.70
2012,06,28,04,41,10.70
2012,06,28,04,42,10.70
2012,06,28,04,43,10.70
2012,06,28,04,44,10.70
2012,06,28,04,45,10.70
2012,06,28,04,46,10.70
2012,06,28,04,47,10.60
2012,06,28,04,48,10.60
2012,06,28,04,49,10.60
2012,06,28,04,50,10.60
2012,06,28,04,51,10.60
2012,06,28,04,52,10.60
2012,06,28,04,53,10.60
2012,06,28,04,54,10.60
2012,06,28,04,55,10.60
2012,06,28,04,56,10.60
2012,06,28,04,57,10.60
2012,06,28,04,58,10.60
2012,06,28,04,59,10.60
2012,06,28,05,00,10.60
2012,06,28,05,01,10.60
2012,06,28,05,02,10.60
2012,06,28,05,03,10.60
2012,06,28,05,04,10.60
2012,06,28,05,05,10.60
2012,06,28,05,06,10.60
2012,06,28,05,07,10.60
2012,06,28,05,08,10.60
2012,06,28,05,09,10.60
2012,06,28,05,10,10.60
2012,06,28,05,11,10.60
2012,06,28,05,12,10.60
2012,06,28,05,13,10.60
2012,06,28,05,14,10.60
2012,06,28,05,15,10.60
2012,06,28,05,16,10.60
2012,06,28,05,17,10.60
2012,06,28,05,18,10.60
2012,06,28,05,19,10.50
2012,06,28,05,20,10.50
2012,06,28,05,21,10.50
2012,06,28,05,22,10.50
2012,06,28,05,23,10.60
2012,06,28,05,24,10.60
2012,06,28,05,25,10.60
2012,06,28,05,26,10.60
2012,06,28,05,27,10.50
2012,06,28,05,28,10.50
2012,06,28,05,29,10.50
2012,06,28,05,30,10.50
2012,06,28,05,31,10.50
2012,06,28,05,32,10.50
2012,06,28,05,33,10.50
2012,06,28,05,34,10.50
2012,06,28,05,35,10.50
2012,06,28,05,36,10.50
2012,06,28,05,37,10.50
2012,06,28,05,38,10.50
2012,06,28,05,39,10.40
2012,06,28,05,40,10.40
2012,06,28,05,41,10.40
2012,06,28,05,42,10.40
2012,06,28,05,43,10.40
2012,06,28,05,44,10.50
2012,06,28,05,45,10.50
2012,06,28,05,46,10.40
2012,06,28,05,47,10.40
2012,06,28,05,48,10.40
2012,06,28,05,49,10.40
2012,06,28,05,50,10.40
2012,06,28,05,51,10.40
2012,06,28,05,52,10.40
2012,06,28,05,53,10.40
2012,06,28,05,54,10.50
2012,06,28,05,55,10.50
2012,06,28,05,56,10.50
2012,06,28,05,57,10.50
2012,06,28,05,58,10.50
2012,06,28,05,59,10.50
2012,06,28,06,00,10.60
2012,06,28,06,01,10.60
2012,06,28,06,02,10.60
2012,06,28,06,03,10.60
2012,06,28,06,04,10.70
2012,06,28,06,05,10.70
2012,06,28,06,06,10.70
2012,06,28,06,07,10.70
2012,06,28,06,08,10.70
2012,06,28,06,09,10.70
2012,06,28,06,10,10.70
2012,06,28,06,11,10.70
2012,06,28,06,12,10.70
2012,06,28,06,13,10.80
2012,06,28,06,14,10.80
2012,06,28,06,15,10.80
2012,06,28,06,16,10.80
2012,06,28,06,17,10.80
2012,06,28,06,18,10.80
2012,06,28,06,19,10.80
2012,06,28,06,20,10.80
2012,06,28,06,21,10.80
2012,06,28,06,22,10.80
2012,06,28,06,23,10.80
2012,06,28,06,24,10.80
2012,06,28,06,25,10.90
2012,06,28,06,26,10.90
2012,06,28,06,27,10.90
2012,06,28,06,28,10.90
2012,06,28,06,29,10.90
2012,06,28,06,30,10.90
2012,06,28,06,31,10.90
2012,06,28,06,32,11.00
2012,06,28,06,33,11.00
2012,06,28,06,34,11.10
2012,06,28,06,35,11.10
2012,06,28,06,36,11.10
2012,06,28,06,37,11.10
2012,06,28,06,38,11.20
2012,06,28,06,39,11.20
2012,06,28,06,40,11.20
2012,06,28,06,41,11.30
2012,06,28,06,42,11.30
2012,06,28,06,43,11.40
2012,06,28,06,44,11.40
2012,06,28,06,45,11.50
2012,06,28,06,46,11.60
2012,06,28,06,47,11.60
2012,06,28,06,48,11.80
2012,06,28,06,49,11.80
2012,06,28,06,50,11.90
2012,06,28,06,51,12.00
2012,06,28,06,52,12.10
2012,06,28,06,53,12.10
2012,06,28,06,54,12.20
2012,06,28,06,55,12.30
2012,06,28,06,56,12.30
2012,06,28,06,57,12.40
2012,06,28,06,58,12.40
2012,06,28,06,59,12.40
2012,06,28,07,00,12.50
2012,06,28,07,01,12.50
2012,06,28,07,02,12.60
2012,06,28,07,03,12.60
2012,06,28,07,04,12.70
2012,06,28,07,05,12.70
2012,06,28,07,06,12.70
2012,06,28,07,07,12.80
2012,06,28,07,08,12.80
2012,06,28,07,09,12.80
2012,06,28,07,10,12.90
2012,06,28,07,11,12.90
2012,06,28,07,12,12.90
2012,06,28,07,13,13.00
2012,06,28,07,14,13.00
2012,06,28,07,15,13.10
2012,06,28,07,16,13.10
2012,06,28,07,17,13.20
2012,06,28,07,18,13.20
2012,06,28,07,19,13.30
2012,06,28,07,20,13.40
2012,06,28,07,21,13.50
2012,06,28,07,22,13.60
2012,06,28,07,23,13.70
2012,06,28,07,24,13.80
2012,06,28,07,25,13.80
2012,06,28,07,26,13.90
2012,06,28,07,27,14.00
2012,06,28,07,28,14.00
2012,06,28,07,29,14.10
2012,06,28,07,30,14.20
2012,06,28,07,31,14.20
2012,06,28,07,32,14.30
2012,06,28,07,33,14.30
2012,06,28,07,34,14.30
2012,06,28,07,35,14.30
2012,06,28,07,36,14.40
2012,06,28,07,37,14.40
2012,06,28,07,38,14.40
2012,06,28,07,39,14.40
2012,06,28,07,40,14.40
2012,06,28,07,41,14.40
2012,06,28,07,42,14.50
2012,06,28,07,43,14.50
2012,06,28,07,44,14.60
2012,06,28,07,45,14.60
2012,06,28,07,46,14.70
2012,06,28,07,47,14.70
2012,06,28,07,48,14.80
2012,06,28,07,49,14.80
2012,06,28,07,50,14.90
2012,06,28,07,51,14.90
2012,06,28,07,52,14.90
2012,06,28,07,53,14.90
2012,06,28,07,54,15.00
2012,06,28,07,55,15.00
2012,06,28,07,56,15.00
2012,06,28,07,57,15.10
2012,06,28,07,58,15.10
2012,06,28,07,59,15.10
2012,06,28,08,00,15.10
2012,06,28,08,01,15.10
2012,06,28,08,02,15.20
2012,06,28,08,03,15.20
2012,06,28,08,04,15.30
2012,06,28,08,05,15.30
2012,06,28,08,06,15.40
2012,06,28,08,07,15.50
2012,06,28,08,08,15.60
2012,06,28,08,09,15.70
2012,06,28,08,10,15.70
2012,06,28,08,11,15.80
2012,06,28,08,12,15.80
2012,06,28,08,13,15.90
2012,06,28,08,14,16.00
2012,06,28,08,15,16.00
2012,06,28,08,16,16.10
2012,06,28,08,17,16.10
2012,06,28,08,18,16.10
2012,06,28,08,19,16.10
2012,06,28,08,20,16.10
2012,06,28,08,21,16.20
2012,06,28,08,22,16.20
2012,06,28,08,23,16.20
2012,06,28,08,24,16.30
2012,06,28,08,25,16.30
2012,06,28,08,26,16.40
2012,06,28,08,27,16.40
2012,06,28,08,28,16.40
2012,06,28,08,29,16.40
2012,06,28,08,30,16.50
2012,06,28,08,31,16.50
2012,06,28,08,32,16.50
2012,06,28,08,33,16.60
2012,06,28,08,34,16.60
2012,06,28,08,35,16.60
2012,06,28,08,36,16.60
2012,06,28,08,37,16.70
2012,06,28,08,38,16.80
2012,06,28,08,39,16.80
2012,06,28,08,40,16.70
2012,06,28,08,41,16.70
2012,06,28,08,42,16.60
2012,06,28,08,43,16.60
2012,06,28,08,44,16.50
2012,06,28,08,45,16.50
2012,06,28,08,46,16.50
2012,06,28,08,47,16.40
2012,06,28,08,48,16.40
2012,06,28,08,49,16.30
2012,06,28,08,50,16.10
2012,06,28,08,51,16.00
2012,06,28,08,52,15.90
2012,06,28,08,53,15.70
2012,06,28,08,54,15.70
2012,06,28,08,55,15.60
2012,06,28,08,56,15.60
2012,06,28,08,57,15.60
2012,06,28,08,58,15.60
2012,06,28,08,59,15.70
2012,06,28,09,00,15.70
2012,06,28,09,01,15.70
2012,06,28,09,02,15.70
2012,06,28,09,03,15.70
2012,06,28,09,04,15.70
2012,06,28,09,05,15.60
2012,06,28,09,06,15.50
2012,06,28,09,07,15.50
2012,06,28,09,08,15.50
2012,06,28,09,09,15.50
2012,06,28,09,10,15.50
2012,06,28,09,11,15.50
2012,06,28,09,12,15.60
2012,06,28,09,13,15.60
2012,06,28,09,14,15.60
2012,06,28,09,15,15.70
2012,06,28,09,16,15.80
2012,06,28,09,17,15.90
2012,06,28,09,18,16.00
2012,06,28,09,19,16.10
2012,06,28,09,20,16.10
2012,06,28,09,21,16.10
2012,06,28,09,22,16.10
2012,06,28,09,23,16.10
2012,06,28,09,24,16.10
2012,06,28,09,25,16.10
2012,06,28,09,26,16.10
2012,06,28,09,27,16.10
2012,06,28,09,28,16.10
2012,06,28,09,29,16.00
2012,06,28,09,30,16.00
2012,06,28,09,31,15.90
2012,06,28,09,32,15.90
2012,06,28,09,33,15.80
2012,06,28,09,34,15.70
2012,06,28,09,35,15.70
2012,06,28,09,36,15.70
2012,06,28,09,37,15.70
2012,06,28,09,38,15.70
2012,06,28,09,39,15.70
2012,06,28,09,40,15.70
2012,06,28,09,41,15.70
2012,06,28,09,42,15.70
2012,06,28,09,43,15.60
2012,06,28,09,44,15.60
2012,06,28,09,45,15.60
2012,06,28,09,46,15.60
2012,06,28,09,47,15.60
2012,06,28,09,48,15.60
2012,06,28,09,49,15.60
2012,06,28,09,50,15.60
2012,06,28,09,51,15.60
2012,06,28,09,52,15.60
2012,06,28,09,53,15.70
2012,06,28,09,54,15.70
2012,06,28,09,55,15.80
2012,06,28,09,56,15.80
2012,06,28,09,57,15.90
2012,06,28,09,58,16.00
2012,06,28,09,59,16.00
2012,06,28,10,00,16.10
2012,06,28,10,01,16.00
2012,06,28,10,02,15.90
2012,06,28,10,03,15.90
2012,06,28,10,04,15.80
2012,06,28,10,05,15.80
2012,06,28,10,06,15.80
2012,06,28,10,07,15.70
2012,06,28,10,08,15.60
2012,06,28,10,09,15.60
2012,06,28,10,10,15.60
2012,06,28,10,11,15.60
2012,06,28,10,12,15.50
2012,06,28,10,13,15.60
2012,06,28,10,14,15.60
2012,06,28,10,15,15.70
2012,06,28,10,16,15.70
2012,06,28,10,17,15.80
2012,06,28,10,18,15.90
2012,06,28,10,19,16.00
2012,06,28,10,20,16.10
2012,06,28,10,21,16.20
2012,06,28,10,22,16.20
2012,06,28,10,23,16.20
2012,06,28,10,24,16.20
2012,06,28,10,25,16.30
2012,06,28,10,26,16.30
2012,06,28,10,27,16.40
2012,06,28,10,28,16.40
2012,06,28,10,29,16.40
2012,06,28,10,30,16.40
2012,06,28,10,31,16.40
2012,06,28,10,32,16.30
2012,06,28,10,33,16.30
2012,06,28,10,34,16.30
2012,06,28,10,35,16.30
2012,06,28,10,36,16.30
2012,06,28,10,37,16.30
2012,06,28,10,38,16.40
2012,06,28,10,39,16.40
2012,06,28,10,40,16.40
2012,06,28,10,41,16.40
2012,06,28,10,42,16.30
2012,06,28,10,43,16.20
2012,06,28,10,44,16.10
2012,06,28,10,45,16.10
2012,06,28,10,46,16.10
2012,06,28,10,47,16.10
2012,06,28,10,48,16.00
2012,06,28,10,49,15.90
2012,06,28,10,50,15.90
2012,06,28,10,51,15.90
2012,06,28,10,52,16.00
2012,06,28,10,53,16.00
2012,06,28,10,54,16.00
2012,06,28,10,55,16.10
2012,06,28,10,56,16.10
2012,06,28,10,57,16.20
2012,06,28,10,58,16.20
2012,06,28,10,59,16.20
2012,06,28,11,00,16.20
2012,06,28,11,01,16.20
2012,06,28,11,02,16.20
2012,06,28,11,03,16.20
2012,06,28,11,04,16.20
2012,06,28,11,05,16.20
2012,06,28,11,06,16.20
2012,06,28,11,07,16.20
2012,06,28,11,08,16.20
2012,06,28,11,09,16.30
2012,06,28,11,10,16.30
2012,06,28,11,11,16.30
2012,06,28,11,12,16.30
2012,06,28,11,13,16.30
2012,06,28,11,14,16.30
2012,06,28,11,15,16.20
2012,06,28,11,16,16.20
2012,06,28,11,17,16.10
2012,06,28,11,18,16.10
2012,06,28,11,19,16.10
2012,06,28,11,20,16.10
2012,06,28,11,21,16.20
2012,06,28,11,22,16.10
2012,06,28,11,23,16.10
2012,06,28,11,24,16.10
2012,06,28,11,25,16.10
2012,06,28,11,26,16.10
2012,06,28,11,27,16.00
2012,06,28,11,28,16.00
2012,06,28,11,29,15.90
2012,06,28,11,30,15.80
2012,06,28,11,31,15.80
2012,06,28,11,32,15.70
2012,06,28,11,33,15.70
2012,06,28,11,34,15.70
2012,06,28,11,35,15.70
2012,06,28,11,36,15.70
2012,06,28,11,37,15.60
2012,06,28,11,38,15.60
2012,06,28,11,39,15.50
2012,06,28,11,40,15.40
2012,06,28,11,41,15.40
2012,06,28,11,42,15.40
2012,06,28,11,43,15.40
2012,06,28,11,44,15.30
2012,06,28,11,45,15.30
2012,06,28,11,46,15.30
2012,06,28,11,47,15.30
2012,06,28,11,48,15.30
2012,06,28,11,49,15.30
2012,06,28,11,50,15.30
2012,06,28,11,51,15.20
2012,06,28,11,52,15.20
2012,06,28,11,53,15.20
2012,06,28,11,54,15.20
2012,06,28,11,55,15.20
2012,06,28,11,56,15.20
2012,06,28,11,57,15.20
2012,06,28,11,58,15.20
2012,06,28,11,59,15.10
2012,06,28,12,00,15.00
2012,06,28,12,01,14.90
2012,06,28,12,02,14.80
2012,06,28,12,03,14.70
2012,06,28,12,04,14.60
2012,06,28,12,05,14.50
2012,06,28,12,06,14.40
2012,06,28,12,07,14.30
2012,06,28,12,08,14.20
2012,06,28,12,09,14.20
2012,06,28,12,10,14.20
2012,06,28,12,11,14.20
2012,06,28,12,12,14.20
2012,06,28,12,13,14.20
2012,06,28,12,14,14.20
2012,06,28,12,15,14.30
2012,06,28,12,16,14.30
2012,06,28,12,17,14.30
2012,06,28,12,18,14.20
2012,06,28,12,19,14.30
2012,06,28,12,20,14.30
2012,06,28,12,21,14.30
2012,06,28,12,22,14.30
2012,06,28,12,23,14.30
2012,06,28,12,24,14.30
2012,06,28,12,25,14.40
2012,06,28,12,26,14.40
2012,06,28,12,27,14.40
2012,06,28,12,28,14.50
2012,06,28,12,29,14.50
2012,06,28,12,30,14.60
2012,06,28,12,31,14.60
2012,06,28,12,32,14.60
2012,06,28,12,33,14.70
2012,06,28,12,34,14.70
2012,06,28,12,35,14.80
2012,06,28,12,36,14.80
2012,06,28,12,37,14.80
2012,06,28,12,38,14.90
2012,06,28,12,39,14.90
2012,06,28,12,40,14.90
2012,06,28,12,41,15.00
2012,06,28,12,42,15.00
2012,06,28,12,43,15.10
2012,06,28,12,44,15.20
2012,06,28,12,45,15.30
2012,06,28,12,46,15.30
2012,06,28,12,47,15.40
2012,06,28,12,48,15.40
2012,06,28,12,49,15.50
2012,06,28,12,50,15.50
2012,06,28,12,51,15.60
2012,06,28,12,52,15.60
2012,06,28,12,53,15.70
2012,06,28,12,54,15.70
2012,06,28,12,55,15.70
2012,06,28,12,56,15.70
2012,06,28,12,57,15.80
2012,06,28,12,58,15.80
2012,06,28,12,59,15.80
2012,06,28,13,00,15.90
2012,06,28,13,01,15.90
2012,06,28,13,02,15.90
2012,06,28,13,03,16.00
2012,06,28,13,04,16.10
2012,06,28,13,05,16.10
2012,06,28,13,06,16.10
2012,06,28,13,07,16.10
2012,06,28,13,08,16.10
2012,06,28,13,09,16.10
2012,06,28,13,10,16.00
2012,06,28,13,11,16.00
2012,06,28,13,12,16.00
2012,06,28,13,13,16.00
2012,06,28,13,14,15.90
2012,06,28,13,15,16.00
2012,06,28,13,16,16.00
2012,06,28,13,17,16.00
2012,06,28,13,18,15.90
2012,06,28,13,19,15.90
2012,06,28,13,20,15.80
2012,06,28,13,21,15.80
2012,06,28,13,22,15.70
2012,06,28,13,23,15.70
2012,06,28,13,24,15.70
2012,06,28,13,25,15.70
2012,06,28,13,26,15.60
2012,06,28,13,27,15.60
2012,06,28,13,28,15.60
2012,06,28,13,29,15.60
2012,06,28,13,30,15.60
2012,06,28,13,31,15.60
2012,06,28,13,32,15.60
2012,06,28,13,33,15.60
2012,06,28,13,34,15.60
2012,06,28,13,35,15.60
2012,06,28,13,36,15.70
2012,06,28,13,37,15.70
2012,06,28,13,38,15.70
2012,06,28,13,39,15.70
2012,06,28,13,40,15.60
2012,06,28,13,41,15.60
2012,06,28,13,42,15.60
2012,06,28,13,43,15.50
2012,06,28,13,44,15.40
2012,06,28,13,45,15.40
2012,06,28,13,46,15.40
2012,06,28,13,47,15.30
2012,06,28,13,48,15.30
2012,06,28,13,49,15.30
2012,06,28,13,50,15.30
2012,06,28,13,51,15.30
2012,06,28,13,52,15.40
2012,06,28,13,53,15.40
2012,06,28,13,54,15.50
2012,06,28,13,55,15.50
2012,06,28,13,56,15.60
2012,06,28,13,57,15.60
2012,06,28,13,58,15.60
2012,06,28,13,59,15.70
2012,06,28,14,00,15.70
2012,06,28,14,01,15.70
2012,06,28,14,02,15.80
2012,06,28,14,03,15.80
2012,06,28,14,04,15.80
2012,06,28,14,05,15.80
2012,06,28,14,06,15.90
2012,06,28,14,07,16.00
2012,06,28,14,08,16.00
2012,06,28,14,09,16.00
2012,06,28,14,10,16.00
2012,06,28,14,11,16.00
2012,06,28,14,12,16.00
2012,06,28,14,13,16.00
2012,06,28,14,14,16.00
2012,06,28,14,15,15.90
2012,06,28,14,16,15.90
2012,06,28,14,17,15.80
2012,06,28,14,18,15.80
2012,06,28,14,19,15.80
2012,06,28,14,20,15.70
2012,06,28,14,21,15.70
2012,06,28,14,22,15.60
2012,06,28,14,23,15.60
2012,06,28,14,24,15.60
2012,06,28,14,25,15.60
2012,06,28,14,26,15.50
2012,06,28,14,27,15.50
2012,06,28,14,28,15.50
2012,06,28,14,29,15.50
2012,06,28,14,30,15.50
2012,06,28,14,31,15.50
2012,06,28,14,32,15.50
2012,06,28,14,33,15.40
2012,06,28,14,34,15.40
2012,06,28,14,35,15.40
2012,06,28,14,36,15.40
2012,06,28,14,37,15.40
2012,06,28,14,38,15.40
2012,06,28,14,39,15.40
2012,06,28,14,40,15.40
2012,06,28,14,41,15.40
2012,06,28,14,42,15.40
2012,06,28,14,43,15.40
2012,06,28,14,44,15.40
2012,06,28,14,45,15.30
2012,06,28,14,46,15.30
2012,06,28,14,47,15.20
2012,06,28,14,48,15.20
2012,06,28,14,49,15.20
2012,06,28,14,50,15.10
2012,06,28,14,51,15.20
2012,06,28,14,52,15.20
2012,06,28,14,53,15.10
2012,06,28,14,54,15.10
2012,06,28,14,55,15.10
2012,06,28,14,56,15.10
2012,06,28,14,57,15.00
2012,06,28,14,58,15.00
2012,06,28,14,59,15.00
2012,06,28,15,00,15.00
2012,06,28,15,01,15.00
2012,06,28,15,02,15.00
2012,06,28,15,03,15.10
2012,06,28,15,04,15.10
2012,06,28,15,05,15.10
2012,06,28,15,06,15.20
2012,06,28,15,07,15.20
2012,06,28,15,08,15.20
2012,06,28,15,09,15.20
2012,06,28,15,10,15.10
2012,06,28,15,11,15.10
2012,06,28,15,12,15.10
2012,06,28,15,13,15.00
2012,06,28,15,14,15.00
2012,06,28,15,15,15.00
2012,06,28,15,16,15.00
2012,06,28,15,17,14.90
2012,06,28,15,18,14.90
2012,06,28,15,19,14.90
2012,06,28,15,20,15.00
2012,06,28,15,21,15.00
2012,06,28,15,22,15.10
2012,06,28,15,23,15.10
2012,06,28,15,24,15.20
2012,06,28,15,25,15.20
2012,06,28,15,26,15.30
2012,06,28,15,27,15.30
2012,06,28,15,28,15.30
2012,06,28,15,29,15.30
2012,06,28,15,30,15.30
2012,06,28,15,31,15.20
2012,06,28,15,32,15.20
2012,06,28,15,33,15.20
2012,06,28,15,34,15.20
2012,06,28,15,35,15.20
2012,06,28,15,36,15.20
2012,06,28,15,37,15.20
2012,06,28,15,38,15.20
2012,06,28,15,39,15.10
2012,06,28,15,40,15.00
2012,06,28,15,41,14.90
2012,06,28,15,42,14.80
2012,06,28,15,43,14.70
2012,06,28,15,44,14.70
2012,06,28,15,45,14.60
2012,06,28,15,46,14.50
2012,06,28,15,47,14.40
2012,06,28,15,48,14.40
2012,06,28,15,49,14.30
2012,06,28,15,50,14.30
2012,06,28,15,51,14.20
2012,06,28,15,52,14.20
2012,06,28,15,53,14.20
2012,06,28,15,54,14.20
2012,06,28,15,55,14.20
2012,06,28,15,56,14.20
2012,06,28,15,57,14.20
2012,06,28,15,58,14.20
2012,06,28,15,59,14.20
2012,06,28,16,00,14.20
2012,06,28,16,01,14.30
2012,06,28,16,02,14.30
2012,06,28,16,03,14.30
2012,06,28,16,04,14.30
2012,06,28,16,05,14.30
2012,06,28,16,06,14.30
2012,06,28,16,07,14.30
2012,06,28,16,08,14.30
2012,06,28,16,09,14.30
2012,06,28,16,10,14.30
2012,06,28,16,11,14.30
2012,06,28,16,12,14.30
2012,06,28,16,13,14.40
2012,06,28,16,14,14.40
2012,06,28,16,15,14.40
2012,06,28,16,16,14.40
2012,06,28,16,17,14.50
2012,06,28,16,18,14.50
2012,06,28,16,19,14.60
2012,06,28,16,20,14.60
2012,06,28,16,21,14.70
2012,06,28,16,22,14.80
2012,06,28,16,23,14.80
2012,06,28,16,24,14.80
2012,06,28,16,25,14.90
2012,06,28,16,26,14.90
2012,06,28,16,27,15.00
2012,06,28,16,28,15.00
2012,06,28,16,29,15.10
2012,06,28,16,30,15.10
2012,06,28,16,31,15.20
2012,06,28,16,32,15.20
2012,06,28,16,33,15.30
2012,06,28,16,34,15.40
2012,06,28,16,35,15.40
2012,06,28,16,36,15.50
2012,06,28,16,37,15.60
2012,06,28,16,38,15.60
2012,06,28,16,39,15.60
2012,06,28,16,40,15.70
2012,06,28,16,41,15.80
2012,06,28,16,42,15.80
2012,06,28,16,43,15.80
2012,06,28,16,44,15.90
2012,06,28,16,45,15.90
2012,06,28,16,46,16.00
2012,06,28,16,47,16.00
2012,06,28,16,48,16.00
2012,06,28,16,49,16.10
2012,06,28,16,50,16.10
2012,06,28,16,51,16.20
2012,06,28,16,52,16.20
2012,06,28,16,53,16.20
2012,06,28,16,54,16.20
2012,06,28,16,55,16.20
2012,06,28,16,56,16.20
2012,06,28,16,57,16.20
2012,06,28,16,58,16.30
2012,06,28,16,59,16.30
2012,06,28,17,00,16.30
2012,06,28,17,01,16.30
2012,06,28,17,02,16.30
2012,06,28,17,03,16.30
2012,06,28,17,04,16.30
2012,06,28,17,05,16.30
2012,06,28,17,06,16.30
2012,06,28,17,07,16.30
2012,06,28,17,08,16.40
2012,06,28,17,09,16.40
2012,06,28,17,10,16.50
2012,06,28,17,11,16.50
2012,06,28,17,12,16.60
2012,06,28,17,13,16.60
2012,06,28,17,14,16.70
2012,06,28,17,15,16.70
2012,06,28,17,16,16.70
2012,06,28,17,17,16.80
2012,06,28,17,18,16.80
2012,06,28,17,19,16.80